Location: Hains Lake
(37.8540°N, 99.8578°W)
Time: 16:36:32
(UTC+00:00)

Vanguard 1 - Pass Details

Date: 08 December 2021
Orbit: 652 x 3830 km, 34.2° (Epoch: 22 January)

Event Time Altitude Azimuth Distance (km) Brightness Sun altitude
Rises 01:28:01 0° 173° (S) 5,654 14.0 -24.6°
Reaches altitude 10° 01:34:12 10° 152° (SSE) 5,305 13.6 -25.8°
Enters shadow 01:41:14 15° 125° (SE) 5,517 13.4 -27.1°
